Location: Newark
(48.6461°N, 4.3644°W)
Time: 01:10:21
(UTC+00:00)

S-56A Canister/Altair - Pass Details

Date: 19 January 2020
Orbit: 633 x 2500 km, 38.9° (Epoch: 26 February)

Event Time Altitude Azimuth Distance (km) Brightness Sun altitude
Rises 21:52:54 0° 214° (SW) 3,327 - -48.0°
Reaches altitude 10° 21:56:44 10° 189° (S) 2,174 - -48.6°
Maximum altitude 21:59:06 14° 159° (SSE) 1,848 - -48.9°
Drops below altitude 10° 22:01:21 10° 128° (SE) 2,025 - -49.2°
Sets 22:04:40 0° 101° (ESE) 2,922 - -49.7°
